sat.trackr.live / text

‹ back to catalog

STARLINK-36194

NORAD 67130 · 2025-299AE

PAYLOAD ACTIVE UNKNOWN

§ Identity

Operator
Country
US
Launch date
2025-12-15
Launch site
AFETR
Launch vehicle
Mass (kg)
RCS (m²)

Purposes: comms

External: N2YO · Heavens-Above · Gunter

§ Orbital elements

Epoch: 2026-05-25T04:05:02.625792Z

Period
94.27 min
Inclination
42.9981°
Eccentricity
0.0001007
Mean motion
15.27585291 rev/d
Perigee alt
482.3 km
Apogee alt
483.7 km
Semi-major
6,861.2 km
B*
6.0120e-4
RAAN
97.0033°
Arg perigee
272.2732°
Mean anomaly
87.8004°
Rev number
2,481

§ Raw data

STARLINK-361941 67130U 25299AE  26145.17016928  .00016321  00000+0  60120-3 0  99902 67130  42.9981  97.0033 0001007 272.2732  87.8004 15.27585291 24814

JSON: /api/v1/satellites/67130 · /tle

For live sub-satellite position, see the globe view (requires WebGL).

§ Visibility from observer

Set your observer location to see the next 7 days of passes ≥ 10°. The values pass through the URL so the page stays shareable.

No JS? Fill the form by hand. The geolocation button needs JavaScript.